Year,Month,Day,Hour,Minute,Value (Times are PST for temperature in C)
2017,06,16,00,00,12.10
2017,06,16,00,01,12.10
2017,06,16,00,02,12.10
2017,06,16,00,03,12.10
2017,06,16,00,04,12.00
2017,06,16,00,05,12.00
2017,06,16,00,06,12.00
2017,06,16,00,07,12.00
2017,06,16,00,08,12.00
2017,06,16,00,09,11.90
2017,06,16,00,10,11.90
2017,06,16,00,11,11.90
2017,06,16,00,12,11.90
2017,06,16,00,13,11.90
2017,06,16,00,14,11.90
2017,06,16,00,15,11.90
2017,06,16,00,16,11.90
2017,06,16,00,17,11.90
2017,06,16,00,18,11.90
2017,06,16,00,19,11.90
2017,06,16,00,20,11.90
2017,06,16,00,21,11.90
2017,06,16,00,22,11.90
2017,06,16,00,23,11.80
2017,06,16,00,24,11.80
2017,06,16,00,25,11.80
2017,06,16,00,26,11.80
2017,06,16,00,27,11.70
2017,06,16,00,28,11.60
2017,06,16,00,29,11.60
2017,06,16,00,30,11.50
2017,06,16,00,31,11.40
2017,06,16,00,32,11.40
2017,06,16,00,33,11.40
2017,06,16,00,34,11.30
2017,06,16,00,35,11.30
2017,06,16,00,36,11.30
2017,06,16,00,37,11.30
2017,06,16,00,38,11.40
2017,06,16,00,39,11.40
2017,06,16,00,40,11.40
2017,06,16,00,41,11.30
2017,06,16,00,42,11.30
2017,06,16,00,43,11.30
2017,06,16,00,44,11.30
2017,06,16,00,45,11.40
2017,06,16,00,46,11.40
2017,06,16,00,47,11.40
2017,06,16,00,48,11.40
2017,06,16,00,49,11.40
2017,06,16,00,50,11.30
2017,06,16,00,51,11.30
2017,06,16,00,52,11.30
2017,06,16,00,53,11.30
2017,06,16,00,54,11.30
2017,06,16,00,55,11.30
2017,06,16,00,56,11.30
2017,06,16,00,57,11.30
2017,06,16,00,58,11.20
2017,06,16,00,59,11.20
2017,06,16,01,00,11.20
2017,06,16,01,01,11.20
2017,06,16,01,02,11.10
2017,06,16,01,03,11.10
2017,06,16,01,04,11.10
2017,06,16,01,05,11.00
2017,06,16,01,06,11.00
2017,06,16,01,07,11.00
2017,06,16,01,08,11.00
2017,06,16,01,09,10.90
2017,06,16,01,10,10.90
2017,06,16,01,11,10.80
2017,06,16,01,12,10.80
2017,06,16,01,13,10.80
2017,06,16,01,14,10.80
2017,06,16,01,15,10.80
2017,06,16,01,16,10.80
2017,06,16,01,17,10.80
2017,06,16,01,18,10.80
2017,06,16,01,19,10.80
2017,06,16,01,20,10.80
2017,06,16,01,21,10.80
2017,06,16,01,22,10.80
2017,06,16,01,23,10.80
2017,06,16,01,24,10.80
2017,06,16,01,25,10.90
2017,06,16,01,26,10.90
2017,06,16,01,27,10.90
2017,06,16,01,28,10.90
2017,06,16,01,29,10.90
2017,06,16,01,30,10.90
2017,06,16,01,31,10.80
2017,06,16,01,32,10.80
2017,06,16,01,33,10.80
2017,06,16,01,34,10.80
2017,06,16,01,35,10.80
2017,06,16,01,36,10.80
2017,06,16,01,37,10.80
2017,06,16,01,38,10.80
2017,06,16,01,39,10.80
2017,06,16,01,40,10.80
2017,06,16,01,41,10.80
2017,06,16,01,42,10.80
2017,06,16,01,43,10.80
2017,06,16,01,44,10.80
2017,06,16,01,45,10.80
2017,06,16,01,46,10.80
2017,06,16,01,47,10.80
2017,06,16,01,48,10.80
2017,06,16,01,49,10.80
2017,06,16,01,50,10.80
2017,06,16,01,51,10.70
2017,06,16,01,52,10.70
2017,06,16,01,53,10.70
2017,06,16,01,54,10.70
2017,06,16,01,55,10.60
2017,06,16,01,56,10.60
2017,06,16,01,57,10.60
2017,06,16,01,58,10.60
2017,06,16,01,59,10.60
2017,06,16,02,00,10.50
2017,06,16,02,01,10.50
2017,06,16,02,02,10.50
2017,06,16,02,03,10.40
2017,06,16,02,04,10.40
2017,06,16,02,05,10.40
2017,06,16,02,06,10.40
2017,06,16,02,07,10.30
2017,06,16,02,08,10.30
2017,06,16,02,09,10.30
2017,06,16,02,10,10.30
2017,06,16,02,11,10.20
2017,06,16,02,12,10.10
2017,06,16,02,13,10.10
2017,06,16,02,14,10.10
2017,06,16,02,15,10.00
2017,06,16,02,16,10.00
2017,06,16,02,17,10.00
2017,06,16,02,18,9.90
2017,06,16,02,19,9.80
2017,06,16,02,20,9.80
2017,06,16,02,21,9.80
2017,06,16,02,22,9.70
2017,06,16,02,23,9.70
2017,06,16,02,24,9.70
2017,06,16,02,25,9.60
2017,06,16,02,26,9.60
2017,06,16,02,27,9.70
2017,06,16,02,28,9.70
2017,06,16,02,29,9.70
2017,06,16,02,30,9.70
2017,06,16,02,31,9.80
2017,06,16,02,32,9.80
2017,06,16,02,33,9.80
2017,06,16,02,34,9.80
2017,06,16,02,35,9.80
2017,06,16,02,36,9.80
2017,06,16,02,37,9.80
2017,06,16,02,38,9.80
2017,06,16,02,39,9.80
2017,06,16,02,40,9.80
2017,06,16,02,41,9.90
2017,06,16,02,42,9.90
2017,06,16,02,43,9.90
2017,06,16,02,44,9.90
2017,06,16,02,45,9.80
2017,06,16,02,46,9.80
2017,06,16,02,47,9.80
2017,06,16,02,48,9.80
2017,06,16,02,49,9.80
2017,06,16,02,50,9.80
2017,06,16,02,51,9.70
2017,06,16,02,52,9.80
2017,06,16,02,53,9.80
2017,06,16,02,54,9.80
2017,06,16,02,55,9.80
2017,06,16,02,56,9.80
2017,06,16,02,57,9.80
2017,06,16,02,58,9.80
2017,06,16,02,59,9.80
2017,06,16,03,00,9.80
2017,06,16,03,01,9.80
2017,06,16,03,02,9.90
2017,06,16,03,03,9.90
2017,06,16,03,04,9.90
2017,06,16,03,05,10.00
2017,06,16,03,06,10.10
2017,06,16,03,07,10.10
2017,06,16,03,08,10.10
2017,06,16,03,09,10.20
2017,06,16,03,10,10.30
2017,06,16,03,11,10.30
2017,06,16,03,12,10.30
2017,06,16,03,13,10.20
2017,06,16,03,14,10.20
2017,06,16,03,15,10.20
2017,06,16,03,16,10.20
2017,06,16,03,17,10.20
2017,06,16,03,18,10.10
2017,06,16,03,19,10.00
2017,06,16,03,20,9.90
2017,06,16,03,21,9.90
2017,06,16,03,22,9.90
2017,06,16,03,23,9.90
2017,06,16,03,24,9.80
2017,06,16,03,25,9.80
2017,06,16,03,26,9.90
2017,06,16,03,27,9.90
2017,06,16,03,28,9.90
2017,06,16,03,29,9.90
2017,06,16,03,30,9.90
2017,06,16,03,31,10.00
2017,06,16,03,32,10.00
2017,06,16,03,33,10.10
2017,06,16,03,34,10.10
2017,06,16,03,35,10.10
2017,06,16,03,36,10.10
2017,06,16,03,37,10.10
2017,06,16,03,38,10.10
2017,06,16,03,39,10.00
2017,06,16,03,40,10.00
2017,06,16,03,41,10.00
2017,06,16,03,42,10.00
2017,06,16,03,43,10.00
2017,06,16,03,44,9.90
2017,06,16,03,45,9.90
2017,06,16,03,46,9.90
2017,06,16,03,47,9.80
2017,06,16,03,48,9.80
2017,06,16,03,49,9.80
2017,06,16,03,50,9.80
2017,06,16,03,51,9.80
2017,06,16,03,52,9.80
2017,06,16,03,53,9.90
2017,06,16,03,54,9.90
2017,06,16,03,55,10.00
2017,06,16,03,56,10.00
2017,06,16,03,57,10.00
2017,06,16,03,58,9.90
2017,06,16,03,59,9.90
2017,06,16,04,00,9.90
2017,06,16,04,01,9.90
2017,06,16,04,02,9.80
2017,06,16,04,03,9.90
2017,06,16,04,04,9.90
2017,06,16,04,05,9.90
2017,06,16,04,06,9.90
2017,06,16,04,07,9.90
2017,06,16,04,08,9.90
2017,06,16,04,09,9.90
2017,06,16,04,10,9.90
2017,06,16,04,11,9.90
2017,06,16,04,12,9.90
2017,06,16,04,13,9.90
2017,06,16,04,14,9.90
2017,06,16,04,15,9.90
2017,06,16,04,16,9.90
2017,06,16,04,17,9.90
2017,06,16,04,18,9.80
2017,06,16,04,19,9.80
2017,06,16,04,20,9.80
2017,06,16,04,21,9.80
2017,06,16,04,22,9.70
2017,06,16,04,23,9.70
2017,06,16,04,24,9.70
2017,06,16,04,25,9.70
2017,06,16,04,26,9.70
2017,06,16,04,27,9.70
2017,06,16,04,28,9.60
2017,06,16,04,29,9.60
2017,06,16,04,30,9.60
2017,06,16,04,31,9.60
2017,06,16,04,32,9.60
2017,06,16,04,33,9.60
2017,06,16,04,34,9.50
2017,06,16,04,35,9.60
2017,06,16,04,36,9.60
2017,06,16,04,37,9.50
2017,06,16,04,38,9.50
2017,06,16,04,39,9.50
2017,06,16,04,40,9.40
2017,06,16,04,41,9.40
2017,06,16,04,42,9.40
2017,06,16,04,43,9.30
2017,06,16,04,44,9.30
2017,06,16,04,45,9.30
2017,06,16,04,46,9.30
2017,06,16,04,47,9.30
2017,06,16,04,48,9.30
2017,06,16,04,49,9.30
2017,06,16,04,50,9.30
2017,06,16,04,51,9.30
2017,06,16,04,52,9.40
2017,06,16,04,53,9.40
2017,06,16,04,54,9.40
2017,06,16,04,55,9.40
2017,06,16,04,56,9.40
2017,06,16,04,57,9.40
2017,06,16,04,58,9.30
2017,06,16,04,59,9.30
2017,06,16,05,00,9.30
2017,06,16,05,01,9.30
2017,06,16,05,02,9.30
2017,06,16,05,03,9.20
2017,06,16,05,04,9.20
2017,06,16,05,05,9.20
2017,06,16,05,06,9.20
2017,06,16,05,07,9.20
2017,06,16,05,08,9.20
2017,06,16,05,09,9.20
2017,06,16,05,10,9.10
2017,06,16,05,11,9.10
2017,06,16,05,12,9.10
2017,06,16,05,13,9.10
2017,06,16,05,14,9.10
2017,06,16,05,15,9.10
2017,06,16,05,16,9.00
2017,06,16,05,17,9.00
2017,06,16,05,18,9.00
2017,06,16,05,19,8.90
2017,06,16,05,20,8.90
2017,06,16,05,21,8.90
2017,06,16,05,22,8.90
2017,06,16,05,23,8.90
2017,06,16,05,24,9.00
2017,06,16,05,25,9.00
2017,06,16,05,26,9.10
2017,06,16,05,27,9.20
2017,06,16,05,28,9.20
2017,06,16,05,29,9.20
2017,06,16,05,30,9.20
2017,06,16,05,31,9.20
2017,06,16,05,32,9.20
2017,06,16,05,33,9.10
2017,06,16,05,34,9.10
2017,06,16,05,35,9.10
2017,06,16,05,36,9.10
2017,06,16,05,37,9.10
2017,06,16,05,38,9.10
2017,06,16,05,39,9.20
2017,06,16,05,40,9.20
2017,06,16,05,41,9.20
2017,06,16,05,42,9.10
2017,06,16,05,43,9.10
2017,06,16,05,44,9.10
2017,06,16,05,45,9.10
2017,06,16,05,46,9.10
2017,06,16,05,47,9.10
2017,06,16,05,48,9.00
2017,06,16,05,49,9.00
2017,06,16,05,50,8.90
2017,06,16,05,51,8.90
2017,06,16,05,52,8.80
2017,06,16,05,53,8.80
2017,06,16,05,54,8.80
2017,06,16,05,55,8.70
2017,06,16,05,56,8.70
2017,06,16,05,57,8.70
2017,06,16,05,58,8.60
2017,06,16,05,59,8.60
2017,06,16,06,00,8.60
2017,06,16,06,01,8.60
2017,06,16,06,02,8.60
2017,06,16,06,03,8.60
2017,06,16,06,04,8.50
2017,06,16,06,05,8.50
2017,06,16,06,06,8.50
2017,06,16,06,07,8.50
2017,06,16,06,08,8.50
2017,06,16,06,09,8.50
2017,06,16,06,10,8.50
2017,06,16,06,11,8.50
2017,06,16,06,12,8.50
2017,06,16,06,13,8.60
2017,06,16,06,14,8.60
2017,06,16,06,15,8.70
2017,06,16,06,16,8.70
2017,06,16,06,17,8.70
2017,06,16,06,18,8.80
2017,06,16,06,19,8.80
2017,06,16,06,20,8.80
2017,06,16,06,21,8.80
2017,06,16,06,22,8.80
2017,06,16,06,23,8.90
2017,06,16,06,24,8.90
2017,06,16,06,25,8.90
2017,06,16,06,26,9.00
2017,06,16,06,27,9.00
2017,06,16,06,28,9.00
2017,06,16,06,29,9.00
2017,06,16,06,30,9.00
2017,06,16,06,31,9.10
2017,06,16,06,32,9.10
2017,06,16,06,33,9.20
2017,06,16,06,34,9.30
2017,06,16,06,35,9.40
2017,06,16,06,36,9.50
2017,06,16,06,37,9.50
2017,06,16,06,38,9.60
2017,06,16,06,39,9.70
2017,06,16,06,40,9.70
2017,06,16,06,41,9.80
2017,06,16,06,42,9.90
2017,06,16,06,43,10.00
2017,06,16,06,44,10.10
2017,06,16,06,45,10.20
2017,06,16,06,46,10.20
2017,06,16,06,47,10.30
2017,06,16,06,48,10.30
2017,06,16,06,49,10.30
2017,06,16,06,50,10.40
2017,06,16,06,51,10.40
2017,06,16,06,52,10.40
2017,06,16,06,53,10.50
2017,06,16,06,54,10.50
2017,06,16,06,55,10.60
2017,06,16,06,56,10.60
2017,06,16,06,57,10.60
2017,06,16,06,58,10.60
2017,06,16,06,59,10.60
2017,06,16,07,00,10.70
2017,06,16,07,01,10.70
2017,06,16,07,02,10.70
2017,06,16,07,03,10.80
2017,06,16,07,04,10.80
2017,06,16,07,05,10.80
2017,06,16,07,06,10.90
2017,06,16,07,07,10.90
2017,06,16,07,08,10.90
2017,06,16,07,09,10.90
2017,06,16,07,10,11.00
2017,06,16,07,11,11.00
2017,06,16,07,12,11.00
2017,06,16,07,13,11.10
2017,06,16,07,14,11.10
2017,06,16,07,15,11.10
2017,06,16,07,16,11.10
2017,06,16,07,17,11.10
2017,06,16,07,18,11.20
2017,06,16,07,19,11.20
2017,06,16,07,20,11.30
2017,06,16,07,21,11.30
2017,06,16,07,22,11.40
2017,06,16,07,23,11.50
2017,06,16,07,24,11.60
2017,06,16,07,25,11.70
2017,06,16,07,26,11.70
2017,06,16,07,27,11.80
2017,06,16,07,28,11.90
2017,06,16,07,29,11.90
2017,06,16,07,30,12.00
2017,06,16,07,31,12.10
2017,06,16,07,32,12.20
2017,06,16,07,33,12.40
2017,06,16,07,34,12.60
2017,06,16,07,35,12.70
2017,06,16,07,36,12.90
2017,06,16,07,37,13.10
2017,06,16,07,38,13.20
2017,06,16,07,39,13.40
2017,06,16,07,40,13.50
2017,06,16,07,41,13.60
2017,06,16,07,42,13.70
2017,06,16,07,43,13.80
2017,06,16,07,44,13.90
2017,06,16,07,45,14.00
2017,06,16,07,46,14.10
2017,06,16,07,47,14.20
2017,06,16,07,48,14.30
2017,06,16,07,49,14.40
2017,06,16,07,50,14.40
2017,06,16,07,51,14.50
2017,06,16,07,52,14.60
2017,06,16,07,53,14.60
2017,06,16,07,54,14.60
2017,06,16,07,55,14.70
2017,06,16,07,56,14.70
2017,06,16,07,57,14.70
2017,06,16,07,58,14.70
2017,06,16,07,59,14.70
2017,06,16,08,00,14.70
2017,06,16,08,01,14.70
2017,06,16,08,02,14.70
2017,06,16,08,03,14.60
2017,06,16,08,04,14.70
2017,06,16,08,05,14.70
2017,06,16,08,06,14.70
2017,06,16,08,07,14.70
2017,06,16,08,08,14.70
2017,06,16,08,09,14.70
2017,06,16,08,10,14.80
2017,06,16,08,11,14.80
2017,06,16,08,12,14.80
2017,06,16,08,13,14.80
2017,06,16,08,14,14.80
2017,06,16,08,15,14.80
2017,06,16,08,16,14.80
2017,06,16,08,17,14.80
2017,06,16,08,18,14.80
2017,06,16,08,19,14.80
2017,06,16,08,20,14.70
2017,06,16,08,21,14.70
2017,06,16,08,22,14.70
2017,06,16,08,23,14.60
2017,06,16,08,24,14.70
2017,06,16,08,25,14.60
2017,06,16,08,26,14.60
2017,06,16,08,27,14.60
2017,06,16,08,28,14.50
2017,06,16,08,29,14.50
2017,06,16,08,30,14.40
2017,06,16,08,31,14.40
2017,06,16,08,32,14.30
2017,06,16,08,33,14.30
2017,06,16,08,34,14.30
2017,06,16,08,35,14.30
2017,06,16,08,36,14.20
2017,06,16,08,37,14.20
2017,06,16,08,38,14.20
2017,06,16,08,39,14.20
2017,06,16,08,40,14.30
2017,06,16,08,41,14.30
2017,06,16,08,42,14.30
2017,06,16,08,43,14.40
2017,06,16,08,44,14.40
2017,06,16,08,45,14.50
2017,06,16,08,46,14.50
2017,06,16,08,47,14.60
2017,06,16,08,48,14.70
2017,06,16,08,49,14.70
2017,06,16,08,50,14.80
2017,06,16,08,51,14.80
2017,06,16,08,52,14.80
2017,06,16,08,53,14.80
2017,06,16,08,54,14.80
2017,06,16,08,55,14.80
2017,06,16,08,56,14.80
2017,06,16,08,57,14.80
2017,06,16,08,58,14.80
2017,06,16,08,59,14.70
2017,06,16,09,00,14.60
2017,06,16,09,01,14.60
2017,06,16,09,02,14.60
2017,06,16,09,03,14.60
2017,06,16,09,04,14.60
2017,06,16,09,05,14.70
2017,06,16,09,06,14.70
2017,06,16,09,07,14.70
2017,06,16,09,08,14.70
2017,06,16,09,09,14.70
2017,06,16,09,10,14.80
2017,06,16,09,11,14.80
2017,06,16,09,12,14.90
2017,06,16,09,13,15.00
2017,06,16,09,14,15.00
2017,06,16,09,15,15.00
2017,06,16,09,16,15.00
2017,06,16,09,17,15.00
2017,06,16,09,18,15.10
2017,06,16,09,19,15.20
2017,06,16,09,20,15.20
2017,06,16,09,21,15.30
2017,06,16,09,22,15.40
2017,06,16,09,23,15.50
2017,06,16,09,24,15.60
2017,06,16,09,25,15.70
2017,06,16,09,26,15.70
2017,06,16,09,27,15.80
2017,06,16,09,28,15.80
2017,06,16,09,29,15.80
2017,06,16,09,30,15.90
2017,06,16,09,31,15.90
2017,06,16,09,32,15.90
2017,06,16,09,33,15.90
2017,06,16,09,34,15.90
2017,06,16,09,35,15.90
2017,06,16,09,36,15.90
2017,06,16,09,37,16.00
2017,06,16,09,38,16.10
2017,06,16,09,39,16.20
2017,06,16,09,40,16.20
2017,06,16,09,41,16.20
2017,06,16,09,42,16.30
2017,06,16,09,43,16.30
2017,06,16,09,44,16.40
2017,06,16,09,45,16.50
2017,06,16,09,46,16.60
2017,06,16,09,47,16.70
2017,06,16,09,48,16.70
2017,06,16,09,49,16.80
2017,06,16,09,50,16.90
2017,06,16,09,51,16.90
2017,06,16,09,52,16.90
2017,06,16,09,53,17.00
2017,06,16,09,54,17.00
2017,06,16,09,55,17.10
2017,06,16,09,56,17.10
2017,06,16,09,57,17.10
2017,06,16,09,58,17.10
2017,06,16,09,59,17.20
2017,06,16,10,00,17.20
2017,06,16,10,01,17.20
2017,06,16,10,02,17.20
2017,06,16,10,03,17.20
2017,06,16,10,04,17.10
2017,06,16,10,05,17.10
2017,06,16,10,06,17.10
2017,06,16,10,07,17.10
2017,06,16,10,08,17.10
2017,06,16,10,09,17.00
2017,06,16,10,10,16.90
2017,06,16,10,11,16.80
2017,06,16,10,12,16.70
2017,06,16,10,13,16.60
2017,06,16,10,14,16.40
2017,06,16,10,15,16.20
2017,06,16,10,16,16.10
2017,06,16,10,17,16.00
2017,06,16,10,18,16.00
2017,06,16,10,19,16.00
2017,06,16,10,20,15.90
2017,06,16,10,21,15.90
2017,06,16,10,22,15.80
2017,06,16,10,23,15.80
2017,06,16,10,24,15.80
2017,06,16,10,25,15.80
2017,06,16,10,26,15.70
2017,06,16,10,27,15.70
2017,06,16,10,28,15.60
2017,06,16,10,29,15.50
2017,06,16,10,30,15.50
2017,06,16,10,31,15.50
2017,06,16,10,32,15.60
2017,06,16,10,33,15.60
2017,06,16,10,34,15.70
2017,06,16,10,35,15.80
2017,06,16,10,36,15.80
2017,06,16,10,37,15.90
2017,06,16,10,38,16.00
2017,06,16,10,39,16.20
2017,06,16,10,40,16.20
2017,06,16,10,41,16.30
2017,06,16,10,42,16.40
2017,06,16,10,43,16.60
2017,06,16,10,44,16.70
2017,06,16,10,45,16.70
2017,06,16,10,46,16.70
2017,06,16,10,47,16.60
2017,06,16,10,48,16.60
2017,06,16,10,49,16.60
2017,06,16,10,50,16.70
2017,06,16,10,51,16.70
2017,06,16,10,52,16.70
2017,06,16,10,53,16.80
2017,06,16,10,54,16.80
2017,06,16,10,55,16.80
2017,06,16,10,56,16.90
2017,06,16,10,57,16.90
2017,06,16,10,58,16.90
2017,06,16,10,59,17.00
2017,06,16,11,00,17.00
2017,06,16,11,01,17.00
2017,06,16,11,02,16.90
2017,06,16,11,03,16.90
2017,06,16,11,04,16.90
2017,06,16,11,05,16.90
2017,06,16,11,06,16.90
2017,06,16,11,07,16.90
2017,06,16,11,08,17.00
2017,06,16,11,09,17.00
2017,06,16,11,10,17.00
2017,06,16,11,11,17.00
2017,06,16,11,12,17.00
2017,06,16,11,13,17.10
2017,06,16,11,14,17.10
2017,06,16,11,15,17.10
2017,06,16,11,16,17.10
2017,06,16,11,17,17.10
2017,06,16,11,18,17.10
2017,06,16,11,19,17.10
2017,06,16,11,20,17.10
2017,06,16,11,21,17.10
2017,06,16,11,22,17.10
2017,06,16,11,23,17.10
2017,06,16,11,24,17.20
2017,06,16,11,25,17.20
2017,06,16,11,26,17.20
2017,06,16,11,27,17.20
2017,06,16,11,28,17.20
2017,06,16,11,29,17.10
2017,06,16,11,30,17.10
2017,06,16,11,31,17.10
2017,06,16,11,32,17.10
2017,06,16,11,33,17.10
2017,06,16,11,34,17.20
2017,06,16,11,35,17.20
2017,06,16,11,36,17.30
2017,06,16,11,37,17.40
2017,06,16,11,38,17.50
2017,06,16,11,39,17.50
2017,06,16,11,40,17.40
2017,06,16,11,41,17.50
2017,06,16,11,42,17.50
2017,06,16,11,43,17.40
2017,06,16,11,44,17.40
2017,06,16,11,45,17.50
2017,06,16,11,46,17.50
2017,06,16,11,47,17.60
2017,06,16,11,48,17.60
2017,06,16,11,49,17.70
2017,06,16,11,50,17.60
2017,06,16,11,51,17.60
2017,06,16,11,52,17.60
2017,06,16,11,53,17.50
2017,06,16,11,54,17.30
2017,06,16,11,55,17.20
2017,06,16,11,56,17.10
2017,06,16,11,57,17.00
2017,06,16,11,58,16.90
2017,06,16,11,59,16.90
2017,06,16,12,00,16.80
2017,06,16,12,01,16.70
2017,06,16,12,02,16.60
2017,06,16,12,03,16.50
2017,06,16,12,04,16.50
2017,06,16,12,05,16.40
2017,06,16,12,06,16.40
2017,06,16,12,07,16.40
2017,06,16,12,08,16.30
2017,06,16,12,09,16.20
2017,06,16,12,10,16.10
2017,06,16,12,11,16.10
2017,06,16,12,12,16.10
2017,06,16,12,13,16.10
2017,06,16,12,14,16.20
2017,06,16,12,15,16.20
2017,06,16,12,16,16.10
2017,06,16,12,17,16.00
2017,06,16,12,18,16.00
2017,06,16,12,19,15.90
2017,06,16,12,20,15.80
2017,06,16,12,21,15.80
2017,06,16,12,22,15.80
2017,06,16,12,23,15.80
2017,06,16,12,24,15.80
2017,06,16,12,25,15.80
2017,06,16,12,26,15.80
2017,06,16,12,27,15.80
2017,06,16,12,28,15.70
2017,06,16,12,29,15.70
2017,06,16,12,30,15.70
2017,06,16,12,31,15.60
2017,06,16,12,32,15.50
2017,06,16,12,33,15.50
2017,06,16,12,34,15.40
2017,06,16,12,35,15.40
2017,06,16,12,36,15.30
2017,06,16,12,37,15.40
2017,06,16,12,38,15.40
2017,06,16,12,39,15.40
2017,06,16,12,40,15.40
2017,06,16,12,41,15.40
2017,06,16,12,42,15.30
2017,06,16,12,43,15.30
2017,06,16,12,44,15.30
2017,06,16,12,45,15.30
2017,06,16,12,46,15.40
2017,06,16,12,47,15.40
2017,06,16,12,48,15.40
2017,06,16,12,49,15.50
2017,06,16,12,50,15.60
2017,06,16,12,51,15.60
2017,06,16,12,52,15.60
2017,06,16,12,53,15.70
2017,06,16,12,54,15.70
2017,06,16,12,55,15.80
2017,06,16,12,56,15.80
2017,06,16,12,57,15.90
2017,06,16,12,58,16.00
2017,06,16,12,59,16.10
2017,06,16,13,00,16.20
2017,06,16,13,01,16.30
2017,06,16,13,02,16.30
2017,06,16,13,03,16.40
2017,06,16,13,04,16.40
2017,06,16,13,05,16.50
2017,06,16,13,06,16.50
2017,06,16,13,07,16.60
2017,06,16,13,08,16.60
2017,06,16,13,09,16.60
2017,06,16,13,10,16.60
2017,06,16,13,11,16.60
2017,06,16,13,12,16.60
2017,06,16,13,13,16.60
2017,06,16,13,14,16.60
2017,06,16,13,15,16.60
2017,06,16,13,16,16.50
2017,06,16,13,17,16.50
2017,06,16,13,18,16.50
2017,06,16,13,19,16.50
2017,06,16,13,20,16.60
2017,06,16,13,21,16.60
2017,06,16,13,22,16.60
2017,06,16,13,23,16.70
2017,06,16,13,24,16.70
2017,06,16,13,25,16.70
2017,06,16,13,26,16.80
2017,06,16,13,27,16.80
2017,06,16,13,28,16.80
2017,06,16,13,29,16.80
2017,06,16,13,30,16.80
2017,06,16,13,31,16.80
2017,06,16,13,32,16.90
2017,06,16,13,33,16.90
2017,06,16,13,34,16.90
2017,06,16,13,35,16.90
2017,06,16,13,36,16.80
2017,06,16,13,37,16.90
2017,06,16,13,38,16.90
2017,06,16,13,39,16.90
2017,06,16,13,40,16.90
2017,06,16,13,41,16.90
2017,06,16,13,42,16.90
2017,06,16,13,43,16.90
2017,06,16,13,44,16.90
2017,06,16,13,45,16.80
2017,06,16,13,46,16.70
2017,06,16,13,47,16.60
2017,06,16,13,48,16.60
2017,06,16,13,49,16.50
2017,06,16,13,50,16.40
2017,06,16,13,51,16.40
2017,06,16,13,52,16.40
2017,06,16,13,53,16.40
2017,06,16,13,54,16.30
2017,06,16,13,55,16.30
2017,06,16,13,56,16.30
2017,06,16,13,57,16.30
2017,06,16,13,58,16.30
2017,06,16,13,59,16.40
2017,06,16,14,00,16.40
2017,06,16,14,01,16.40
2017,06,16,14,02,16.40
2017,06,16,14,03,16.40
2017,06,16,14,04,16.40
2017,06,16,14,05,16.40
2017,06,16,14,06,16.40
2017,06,16,14,07,16.30
2017,06,16,14,08,16.30
2017,06,16,14,09,16.30
2017,06,16,14,10,16.30
2017,06,16,14,11,16.30
2017,06,16,14,12,16.30
2017,06,16,14,13,16.30
2017,06,16,14,14,16.40
2017,06,16,14,15,16.50
2017,06,16,14,16,16.60
2017,06,16,14,17,16.60
2017,06,16,14,18,16.70
2017,06,16,14,19,16.80
2017,06,16,14,20,16.80
2017,06,16,14,21,16.80
2017,06,16,14,22,16.90
2017,06,16,14,23,16.90
2017,06,16,14,24,17.00
2017,06,16,14,25,17.00
2017,06,16,14,26,17.10
2017,06,16,14,27,17.10
2017,06,16,14,28,17.20
2017,06,16,14,29,17.30
2017,06,16,14,30,17.30
2017,06,16,14,31,17.30
2017,06,16,14,32,17.40
2017,06,16,14,33,17.40
2017,06,16,14,34,17.40
2017,06,16,14,35,17.40
2017,06,16,14,36,17.50
2017,06,16,14,37,17.50
2017,06,16,14,38,17.60
2017,06,16,14,39,17.60
2017,06,16,14,40,17.60
2017,06,16,14,41,17.60
2017,06,16,14,42,17.60
2017,06,16,14,43,17.70
2017,06,16,14,44,17.70
2017,06,16,14,45,17.80
2017,06,16,14,46,17.90
2017,06,16,14,47,18.00
2017,06,16,14,48,18.10
2017,06,16,14,49,18.20
2017,06,16,14,50,18.30
2017,06,16,14,51,18.40
2017,06,16,14,52,18.40
2017,06,16,14,53,18.50
2017,06,16,14,54,18.40
2017,06,16,14,55,18.50
2017,06,16,14,56,18.50
2017,06,16,14,57,18.50
2017,06,16,14,58,18.50
2017,06,16,14,59,18.40
2017,06,16,15,00,18.40
2017,06,16,15,01,18.40
2017,06,16,15,02,18.40
2017,06,16,15,03,18.30
2017,06,16,15,04,18.30
2017,06,16,15,05,18.20
2017,06,16,15,06,18.20
2017,06,16,15,07,18.00
2017,06,16,15,08,17.90
2017,06,16,15,09,17.80
2017,06,16,15,10,17.70
2017,06,16,15,11,17.70
2017,06,16,15,12,17.60
2017,06,16,15,13,17.50
2017,06,16,15,14,17.50
2017,06,16,15,15,17.50
2017,06,16,15,16,17.40
2017,06,16,15,17,17.40
2017,06,16,15,18,17.30
2017,06,16,15,19,17.30
2017,06,16,15,20,17.30
2017,06,16,15,21,17.30
2017,06,16,15,22,17.30
2017,06,16,15,23,17.30
2017,06,16,15,24,17.40
2017,06,16,15,25,17.50
2017,06,16,15,26,17.60
2017,06,16,15,27,17.60
2017,06,16,15,28,17.60
2017,06,16,15,29,17.70
2017,06,16,15,30,17.70
2017,06,16,15,31,17.70
2017,06,16,15,32,17.80
2017,06,16,15,33,17.80
2017,06,16,15,34,17.90
2017,06,16,15,35,17.90
2017,06,16,15,36,17.80
2017,06,16,15,37,17.70
2017,06,16,15,38,17.70
2017,06,16,15,39,17.70
2017,06,16,15,40,17.80
2017,06,16,15,41,17.80
2017,06,16,15,42,17.80
2017,06,16,15,43,17.80
2017,06,16,15,44,17.80
2017,06,16,15,45,17.70
2017,06,16,15,46,17.70
2017,06,16,15,47,17.70
2017,06,16,15,48,17.80
2017,06,16,15,49,17.80
2017,06,16,15,50,17.90
2017,06,16,15,51,17.90
2017,06,16,15,52,17.90
2017,06,16,15,53,17.80
2017,06,16,15,54,17.80
2017,06,16,15,55,17.80
2017,06,16,15,56,17.80
2017,06,16,15,57,17.80
2017,06,16,15,58,17.80
2017,06,16,15,59,17.80
2017,06,16,16,00,17.70
2017,06,16,16,01,17.70
2017,06,16,16,02,17.70
2017,06,16,16,03,17.70
2017,06,16,16,04,17.80
2017,06,16,16,05,17.80
2017,06,16,16,06,17.80
2017,06,16,16,07,17.70
2017,06,16,16,08,17.70
2017,06,16,16,09,17.70
2017,06,16,16,10,17.70
2017,06,16,16,11,17.80
2017,06,16,16,12,17.90
2017,06,16,16,13,18.00
2017,06,16,16,14,18.00
2017,06,16,16,15,18.10
2017,06,16,16,16,18.10
2017,06,16,16,17,18.10
2017,06,16,16,18,18.00
2017,06,16,16,19,17.90
2017,06,16,16,20,17.80
2017,06,16,16,21,17.70
2017,06,16,16,22,17.70
2017,06,16,16,23,17.70
2017,06,16,16,24,17.70
2017,06,16,16,25,17.70
2017,06,16,16,26,17.70
2017,06,16,16,27,17.80
2017,06,16,16,28,17.90
2017,06,16,16,29,18.00
2017,06,16,16,30,18.00
2017,06,16,16,31,18.00
2017,06,16,16,32,18.10
2017,06,16,16,33,18.00
2017,06,16,16,34,18.00
2017,06,16,16,35,17.90
2017,06,16,16,36,17.80
2017,06,16,16,37,17.80
2017,06,16,16,38,17.70
2017,06,16,16,39,17.60
2017,06,16,16,40,17.50
2017,06,16,16,41,17.50
2017,06,16,16,42,17.50
2017,06,16,16,43,17.60
2017,06,16,16,44,17.70
2017,06,16,16,45,17.80
2017,06,16,16,46,17.80
2017,06,16,16,47,17.70
2017,06,16,16,48,17.60
2017,06,16,16,49,17.50
2017,06,16,16,50,17.50
2017,06,16,16,51,17.60
2017,06,16,16,52,17.60
2017,06,16,16,53,17.70
2017,06,16,16,54,17.70
2017,06,16,16,55,17.70
2017,06,16,16,56,17.80
2017,06,16,16,57,17.80
2017,06,16,16,58,17.90
2017,06,16,16,59,18.00
2017,06,16,17,00,18.10
2017,06,16,17,01,18.10
2017,06,16,17,02,18.20
2017,06,16,17,03,18.20
2017,06,16,17,04,18.10
2017,06,16,17,05,18.10
2017,06,16,17,06,18.10
2017,06,16,17,07,18.20
2017,06,16,17,08,18.10
2017,06,16,17,09,18.00
2017,06,16,17,10,18.00
2017,06,16,17,11,17.90
2017,06,16,17,12,17.90
2017,06,16,17,13,18.00
2017,06,16,17,14,18.10
2017,06,16,17,15,18.20
2017,06,16,17,16,18.20
2017,06,16,17,17,18.10
2017,06,16,17,18,18.00
2017,06,16,17,19,18.00
2017,06,16,17,20,18.00
2017,06,16,17,21,18.10
2017,06,16,17,22,18.20
2017,06,16,17,23,18.30
2017,06,16,17,24,18.40
2017,06,16,17,25,18.50
2017,06,16,17,26,18.60
2017,06,16,17,27,18.60
2017,06,16,17,28,18.70
2017,06,16,17,29,18.80